TimeCDT,TemperatureF,Dew PointF,Humidity,Sea Level PressureIn,VisibilityMPH,Wind Direction,Wind SpeedMPH,Gust SpeedMPH,PrecipitationIn,Events,Conditions,WindDirDegrees,DateUTC
12:56 AM,-6.0,-11.9,75,30.23,10.0,Calm,Calm,-,N/A,,Clear,0,2013-03-21 05:56:00
1:56 AM,-9.0,-14.1,79,30.22,10.0,NNE,3.5,-,N/A,,Clear,20,2013-03-21 06:56:00
2:56 AM,-11.9,-17.0,78,30.20,10.0,NE,5.8,-,N/A,,Clear,50,2013-03-21 07:56:00
3:56 AM,-7.1,-9.9,87,30.18,10.0,ENE,9.2,-,N/A,,Clear,60,2013-03-21 08:56:00
4:56 AM,-9.9,-14.1,82,30.17,10.0,Calm,Calm,-,N/A,,Clear,0,2013-03-21 09:56:00
5:56 AM,-7.1,-11.0,83,30.18,10.0,Calm,Calm,-,N/A,,Clear,0,2013-03-21 10:56:00
6:56 AM,-9.0,-14.1,79,30.18,10.0,Calm,Calm,-,N/A,,Clear,0,2013-03-21 11:56:00
7:56 AM,-11.9,-18.0,74,30.19,6.0,Calm,Calm,-,N/A,,Haze,0,2013-03-21 12:56:00
8:56 AM,-9.9,-11.9,91,30.18,10.0,Calm,Calm,-,N/A,,Clear,0,2013-03-21 13:56:00
9:56 AM,-2.9,-7.1,82,30.17,9.0,Calm,Calm,-,0.00,Snow,Light Snow,0,2013-03-21 14:56:00
10:56 AM,1.0,-5.1,75,30.17,10.0,ENE,6.9,-,0.00,,Clear,70,2013-03-21 15:56:00
11:56 AM,6.1,-0.0,76,30.18,10.0,East,5.8,-,N/A,,Clear,100,2013-03-21 16:56:00
12:56 PM,9.0,3.0,77,30.17,10.0,East,6.9,-,N/A,,Clear,100,2013-03-21 17:56:00
1:56 PM,12.9,6.1,74,30.16,10.0,ESE,5.8,-,N/A,,Clear,110,2013-03-21 18:56:00
2:56 PM,16.0,6.1,65,30.14,10.0,ESE,8.1,-,N/A,,Clear,110,2013-03-21 19:56:00
3:56 PM,17.1,8.1,68,30.13,10.0,East,12.7,-,N/A,,Clear,90,2013-03-21 20:56:00
4:56 PM,17.1,8.1,68,30.13,10.0,East,13.8,-,0.00,,Clear,100,2013-03-21 21:56:00
5:56 PM,16.0,7.0,68,30.13,10.0,East,11.5,-,N/A,,Clear,100,2013-03-21 22:56:00
6:56 PM,14.0,7.0,74,30.14,10.0,East,10.4,-,N/A,,Clear,90,2013-03-21 23:56:00
7:56 PM,10.0,5.0,80,30.17,10.0,East,5.8,-,N/A,,Clear,90,2013-03-22 00:56:00
8:56 PM,5.0,1.9,87,30.19,10.0,East,4.6,-,N/A,,Clear,80,2013-03-22 01:56:00
9:56 PM,3.0,-2.0,80,30.19,10.0,Calm,Calm,-,N/A,,Clear,0,2013-03-22 02:56:00
10:56 PM,1.9,-0.9,88,30.19,10.0,ENE,6.9,-,N/A,,Clear,70,2013-03-22 03:56:00
11:56 PM,-0.0,-4.0,83,30.19,10.0,Calm,Calm,-,N/A,,Clear,0,2013-03-22 04:56:00